Regional Weather Roundup
Issued by NWS New Orleans/Baton Rouge, LA

Home | Current Version | Previous Version | Graphics & Text | Print | Product List | Glossary On
Versions: 1 2 3 4 5 6 7 8 9 10 11 12 13 14 15 16 17 18 19 20 21 22 23 24 25 26 27 28 29 30 31 32 33 34 35 36 37 38 39 40 41 42 43 44 45 46 47 48 49 50
630
ASUS44 KLIX 172110
RWRLIX
NEW ORLEANS REGIONAL WEATHER ROUNDUP
NATIONAL WEATHER SERVICE NEW ORLEANS LA
400 PM CDT THU APR 17 2014

NOTE: "FAIR" INDICATES FEW OR NO CLOUDS BELOW 12,000 FEET WITH NO
      SIGNIFICANT WEATHER AND/OR OBSTRUCTIONS TO VISIBILITY.
      SKY/WX - SKY CONDITION AND SIGNIFICANT WEATHER.
      TMP - AIR TEMPERATURE.     DP    - DEWPOINT TEMPERATURE.
      RH  - RELATIVE HUMIDITY.   PRES  - PRESSURE.
      HI  - HEAT INDEX.          WCI   - WIND CHILL INDEX.

*  THESE STATIONS ARE NOT NWS OR FAA STATIONS AND ARE NOT UNDER
   NWS QUALITY CONTROL.

LAZ038-040-048-061>063-065>067-069-172200-
SOUTHEAST LOUISIANA

CITY           SKY/WX    TMP DP  RH WIND       PRES   REMARKS
N.O. AUDUBON     N/A     66  32  28 MISG        N/A
N.O. INTL ARPT CLOUDY    65  59  81 E10       30.14S
N.O. LAKEFRONT CLOUDY    63  60  90 E13       30.15S
N.O. DOWNTOWN* CLOUDY    63  55  77 E8        30.15S
SLIDELL        CLOUDY    65  58  78 E5        30.15F
BATON ROUGE    CLOUDY    67  56  67 NE8       30.13F
BOOTHVILLE     LGT RAIN  64  62  93 E6        30.14S FOG
BELLE CHASSE   CLOUDY    65  58  78 E7        30.13F
BOGALUSA*        N/A     67  56  67 E6        30.17F
GALLIANO*      CLOUDY    67  62  84 NE7       30.12F
NEW ROADS*       N/A     65  54  69 E6        30.13F
GONZALES*      CLOUDY    65  60  85 E8        30.14R
HAMMOND*       CLOUDY    66  57  72 E7        30.16F
HOUMA*         CLOUDY    66  59  77 NE9       30.14R HAZE
PORT FOURCHON* MOCLDY    66  63  88 E10       30.13F FOG

$$

MSZ070-080>082-172200-
SOUTHERN MISSISSIPPI

CITY           SKY/WX    TMP DP  RH WIND       PRES   REMARKS
MCCOMB         CLOUDY    64  55  72 E6        30.15F
GULFPORT       CLOUDY    66  58  75 SE8       30.16S
BILOXI         CLOUDY    65  59  80 SE8       30.16S
PASCAGOULA     CLOUDY    68  59  73 SE5       30.16S
STENNIS ARPT*  CLOUDY    64  57  77 CALM      30.16

$$

COASTAL OBSERVATIONS
LAKE AND NEARSHORE STATIONS

STATION/POSITION TIME  TEMP    WIND        PRES    WAVE
                       AIR SEA DIR/SP/G            HT/PER
                 (UTC) (F)     (DEG/KT/KT) (MB)    (FT/S)
PASCAGOULA       2100   67      80/ 11/ 14 1020.6
WAVELAND YACHT   2100   63 67  100/  6/  7 1020.5
GRAND ISLE       2100   66 67   80/ 11/ 17 1020.2
SOUTHWEST PASS   2100   69 59   70/ 15/ 17 1020.0
NEW CANAL        2100   63 63   80/ 11/ 19 1020.7
SHELL BEACH      2100   62 62   70/ 11/ 12 1020.6

OFFSHORE STATIONS

STATION/POSITION TIME  TEMP    WIND        PRES    WAVE
                       AIR SEA DIR/SP/G            HT/PER
                 (UTC) (F)     (DEG/KT/KT) (MB)    (FT/S)
64 S DAUPHIN ISL 1952   66 71   60/ 21/ 25 1019.8

$$




USA.gov is the U.S. government's official web portal to all federal, state and local government web resources and services.